Weather History for Belmar-Farmingdale, NJ

Change the Weather History Date:

Sunday, December 16, 2012

  Actual Average Record
Temperature  
Mean Temperature 48 °F -  
Max Temperature 51 °F 43 °F 59 °F (2011)
Min Temperature 46 °F 29 °F 17 °F (2010)
Degree Days  
Heating Degree Days 16    
Moisture  
Dew Point 46 °F    
Average Humidity 89    
Maximum Humidity 100    
Minimum Humidity 76    
Precipitation  
Precipitation 0.21 in - - ()
Sea Level Pressure  
Sea Level Pressure 30.01 in    
Wind  
Wind Speed 7 mph (ENE)    
Max Wind Speed 13 mph    
Max Gust Speed 16 mph    
Visibility 7 miles    
Events      
Averages and records for this station are not official NWS values.
T = Trace of Precipitation, MM = Missing Value Source: NWS Daily Summary

Daily Weather History Graph

Daily Weather History Graph

Search for Another Location

Airport:

Trip Planner

Search our weather history database for the weather conditions in past years. The results will help you decide how hot, cold, wet, or windy it might be!

Date:

Astronomy

Dec. 16, 2012 Rise Set
Actual Time 7:12 AM EST 4:32 PM EST
Civil Twilight 6:42 AM EST 5:02 PM EST
Nautical Twilight 6:07 AM EST 5:36 PM EST
Astronomical Twilight 5:34 AM EST 6:09 PM EST
Moon 9:44 AM EST (12/16) 8:43 PM EST (12/16)
Length of Visible Light 10h 20m
Length of Day
9h 19m
Waxing Crescent, 16% of the Moon is Illuminated
Dec 16
Waxing Crescent
Dec 20
First Quarter
Dec 28
Full
Jan 4
Last Quarter
Jan 11
New

Hourly Weather History & Observations

Time (EST) Temp. Windchill Dew Point Humidity Pressure Visibility Wind Dir Wind Speed Gust Speed Precip Events Conditions
12:15 AM 46.4 °F 42.9 °F 39.2 °F 76% 30.18 in 10.0 mi ESE 6.9 mph - N/A   Mostly Cloudy
12:35 AM 46.4 °F 41.9 °F 39.2 °F 76% 30.17 in 10.0 mi East 9.2 mph - N/A   Overcast
12:55 AM 46.4 °F 43.5 °F 39.2 °F 76% 30.18 in 10.0 mi ESE 5.8 mph - N/A   Overcast
1:15 AM 46.4 °F 44.3 °F 39.2 °F 76% 30.19 in 10.0 mi ESE 4.6 mph - N/A   Overcast
1:55 AM 46.4 °F 43.5 °F 39.2 °F 76% 30.18 in 10.0 mi East 5.8 mph - N/A   Overcast
2:15 AM 46.4 °F 45.2 °F 39.2 °F 76% 30.18 in 10.0 mi East 3.5 mph - N/A   Overcast
2:35 AM 46.4 °F 43.5 °F 39.2 °F 76% 30.17 in 10.0 mi ESE 5.8 mph - N/A   Overcast
2:55 AM 46.4 °F 41.9 °F 41.0 °F 81% 30.14 in 10.0 mi East 9.2 mph - N/A   Overcast
3:15 AM 48.2 °F - 41.0 °F 76% 30.15 in 10.0 mi ESE 6.9 mph - N/A   Overcast
3:55 AM 48.2 °F - 41.0 °F 76% 30.12 in 10.0 mi ESE 9.2 mph - N/A   Overcast
4:35 AM 48.2 °F - 42.8 °F 82% 30.12 in 10.0 mi ESE 5.8 mph - N/A   Overcast
4:55 AM 48.2 °F - 42.8 °F 82% 30.11 in 10.0 mi ESE 6.9 mph - N/A   Overcast
5:15 AM 48.2 °F - 42.8 °F 82% 30.11 in 10.0 mi East 6.9 mph - N/A   Overcast
5:35 AM 48.2 °F - 42.8 °F 82% 30.11 in 10.0 mi East 5.8 mph - N/A   Overcast
5:55 AM 48.2 °F - 42.8 °F 82% 30.10 in 10.0 mi East 6.9 mph - N/A   Overcast
6:15 AM 48.2 °F - 44.6 °F 87% 30.11 in 10.0 mi SE 4.6 mph - N/A   Overcast
6:35 AM 50.0 °F - 44.6 °F 82% 30.11 in 10.0 mi SE 5.8 mph - N/A   Overcast
6:55 AM 50.0 °F - 44.6 °F 82% 30.10 in 10.0 mi SE 6.9 mph - N/A   Overcast
7:15 AM 51.8 °F - 44.6 °F 76% 30.09 in 10.0 mi ESE 8.1 mph - N/A   Mostly Cloudy
7:35 AM 51.8 °F - 44.6 °F 76% 30.09 in 10.0 mi SE 9.2 mph - N/A   Overcast
8:15 AM 51.8 °F - 46.4 °F 82% 30.08 in 10.0 mi ESE 8.1 mph - N/A   Overcast
8:35 AM 51.8 °F - 46.4 °F 82% 30.08 in 10.0 mi ESE 8.1 mph - N/A   Overcast
8:55 AM 51.8 °F - 46.4 °F 82% 30.07 in 10.0 mi SE 10.4 mph - N/A   Overcast
9:15 AM 51.8 °F - 46.4 °F 82% 30.07 in 10.0 mi ESE 8.1 mph 16.1 mph N/A   Overcast
9:35 AM 51.8 °F - 46.4 °F 82% 30.07 in 10.0 mi ESE 10.4 mph - N/A   Overcast
9:55 AM 51.8 °F - 46.4 °F 82% 30.06 in 10.0 mi ESE 9.2 mph - N/A   Overcast
10:15 AM 51.8 °F - 48.2 °F 88% 30.06 in 7.0 mi ESE 10.4 mph - N/A   Overcast
10:35 AM 51.8 °F - 48.2 °F 88% 30.06 in 5.0 mi ESE 9.2 mph - N/A   Overcast
10:55 AM 51.8 °F - 48.2 °F 88% 30.05 in 3.0 mi ESE 8.1 mph - N/A   Overcast
11:15 AM 51.8 °F - 48.2 °F 88% 30.04 in 7.0 mi SE 4.6 mph - N/A   Overcast
11:35 AM 51.8 °F - 50.0 °F 94% 30.03 in 9.0 mi ESE 4.6 mph - N/A   Overcast
11:55 AM 51.8 °F - 50.0 °F 94% 30.01 in 8.0 mi East 3.5 mph - N/A   Overcast
12:15 PM 51.8 °F - 50.0 °F 94% 30.00 in 7.0 mi ENE 4.6 mph - N/A   Overcast
12:35 PM 51.8 °F - 50.0 °F 94% 30.00 in 7.0 mi NE 3.5 mph - N/A   Overcast
12:55 PM 51.8 °F - 50.0 °F 94% 29.99 in 5.0 mi NNE 3.5 mph - N/A   Overcast
1:15 PM 51.8 °F - 50.0 °F 94% 29.98 in 1.2 mi Calm Calm - 0.01 in   Overcast
1:35 PM 51.8 °F - 48.2 °F 88% 29.98 in 2.5 mi NE 4.6 mph - 0.01 in   Mostly Cloudy
1:55 PM 51.8 °F - 48.2 °F 88% 29.97 in 2.5 mi NE 4.6 mph - 0.01 in   Overcast
2:15 PM 51.8 °F - 50.0 °F 94% 29.96 in 2.0 mi NE 4.6 mph - 0.01 in   Overcast
2:35 PM 51.8 °F - 50.0 °F 94% 29.96 in 1.2 mi Calm Calm - 0.02 in   Overcast
2:55 PM 51.8 °F - 50.0 °F 94% 29.96 in 1.8 mi Calm Calm - 0.03 in   Overcast
3:15 PM 50.0 °F - 48.2 °F 94% 29.95 in 1.8 mi NNE 4.6 mph - 0.02 in   Overcast
3:35 PM 50.0 °F - 48.2 °F 94% 29.95 in 2.5 mi NNE 4.6 mph - 0.02 in   Overcast
3:55 PM 50.0 °F - 48.2 °F 94% 29.94 in 2.0 mi ENE 6.9 mph - 0.03 in   Overcast
4:15 PM 50.0 °F - 48.2 °F 94% 29.94 in 2.5 mi ENE 8.1 mph - 0.01 in   Overcast
4:35 PM 50.0 °F - 48.2 °F 94% 29.94 in 4.0 mi NE 5.8 mph - 0.02 in   Overcast
5:15 PM 48.2 °F - 48.2 °F 100% 29.92 in 5.0 mi NE 6.9 mph - N/A   Overcast
5:35 PM 48.2 °F - 48.2 °F 100% 29.93 in 4.0 mi NE 10.4 mph - N/A   Overcast
5:55 PM 48.2 °F - 48.2 °F 100% 29.92 in 2.5 mi NE 10.4 mph - 0.01 in   Overcast
6:15 PM 48.2 °F - 48.2 °F 100% 29.92 in 4.0 mi NE 10.4 mph - N/A   Overcast
6:35 PM 48.2 °F - 48.2 °F 100% 29.92 in 6.0 mi NE 9.2 mph - N/A   Overcast
6:55 PM 48.2 °F - 46.4 °F 93% 29.92 in 9.0 mi NE 11.5 mph 16.1 mph N/A   Overcast
7:15 PM 48.2 °F - 46.4 °F 93% 29.91 in 5.0 mi NNE 8.1 mph - N/A   Overcast
7:35 PM 48.2 °F - 46.4 °F 93% 29.90 in 4.0 mi NNE 10.4 mph - N/A   Overcast
7:55 PM 48.2 °F - 46.4 °F 93% 29.90 in 4.0 mi NNE 12.7 mph 16.1 mph N/A   Overcast
8:15 PM 46.4 °F 41.1 °F 46.4 °F 100% 29.90 in 5.0 mi NNE 11.5 mph 16.1 mph N/A   Overcast
8:35 PM 46.4 °F 42.4 °F 46.4 °F 100% 29.91 in 4.0 mi NNE 8.1 mph - N/A   Overcast
8:55 PM 46.4 °F 42.4 °F 46.4 °F 100% 29.91 in 3.0 mi NNE 8.1 mph 16.1 mph N/A   Overcast
9:15 PM 46.4 °F 41.1 °F 46.4 °F 100% 29.90 in 4.0 mi NNE 11.5 mph - N/A   Overcast
9:35 PM 46.4 °F 41.9 °F 44.6 °F 93% 29.90 in 4.0 mi NNE 9.2 mph - 0.01 in   Overcast
9:55 PM 48.2 °F - 46.4 °F 93% 29.89 in 5.0 mi NE 9.2 mph - 0.06 in   Overcast
10:15 PM 48.2 °F - 46.4 °F 93% 29.90 in 6.0 mi NE 9.2 mph - N/A   Overcast
10:35 PM 48.2 °F - 46.4 °F 93% 29.90 in 8.0 mi NNE 8.1 mph - 0.01 in   Overcast
10:55 PM 48.2 °F - 46.4 °F 93% 29.91 in 10.0 mi NNE 9.2 mph - 0.03 in   Overcast
11:15 PM 46.4 °F 41.5 °F 44.6 °F 93% 29.90 in 9.0 mi NE 10.4 mph - 0.01 in   Overcast
11:35 PM 46.4 °F 42.9 °F 46.4 °F 100% 29.90 in 9.0 mi NNE 6.9 mph - 0.02 in   Overcast
11:55 PM 46.4 °F 43.5 °F 46.4 °F 100% 29.90 in 10.0 mi NNE 5.8 mph - 0.02 in   Overcast